Time,TemperatureF,DewpointF,PressureIn,WindDirection,WindDirectionDegrees,WindSpeedMPH,WindSpeedGustMPH,Humidity,HourlyPrecipIn,Conditions,Clouds,dailyrainin,SolarRadiationWatts/m^2,SoftwareType,DateUTC
2013-04-11 00:33:00,54.0,48.0,-100.00,WNW,297,13.0,24.0,80,0.00,,,0.00,0.000000,,2013-04-11 04:33:00,
2013-04-11 00:43:00,54.0,48.0,-100.00,WNW,297,13.0,24.0,80,0.00,,,0.00,0.000000,,2013-04-11 04:43:00,
2013-04-11 00:53:00,54.0,48.0,-100.00,WNW,297,13.0,24.0,80,0.00,,,0.00,0.000000,,2013-04-11 04:53:00,
2013-04-11 01:02:00,54.0,48.0,-100.00,WNW,297,13.0,24.0,80,0.00,,,0.00,0.000000,,2013-04-11 05:02:00,
2013-04-11 01:23:00,54.0,48.0,-100.00,WNW,285,14.0,26.0,79,0.00,,,0.00,0.000000,,2013-04-11 05:23:00,
2013-04-11 01:32:00,54.0,48.0,-100.00,WNW,285,14.0,26.0,79,0.00,,,0.00,0.000000,,2013-04-11 05:32:00,
2013-04-11 01:42:00,54.0,48.0,-100.00,WNW,285,14.0,26.0,79,0.00,,,0.00,0.000000,,2013-04-11 05:42:00,
2013-04-11 01:52:00,54.0,48.0,-100.00,WNW,285,14.0,26.0,79,0.00,,,0.00,0.000000,,2013-04-11 05:52:00,
2013-04-11 02:02:00,54.0,48.0,-100.00,WNW,285,14.0,26.0,79,0.00,,,0.00,0.000000,,2013-04-11 06:02:00,
2013-04-11 02:32:00,54.0,48.0,-100.00,West,276,12.0,28.0,79,0.00,,,0.00,0.000000,,2013-04-11 06:32:00,
2013-04-11 02:42:00,54.0,48.0,-100.00,West,276,12.0,28.0,79,0.00,,,0.00,0.000000,,2013-04-11 06:42:00,
2013-04-11 02:53:00,54.0,48.0,-100.00,West,276,12.0,28.0,79,0.00,,,0.00,0.000000,,2013-04-11 06:53:00,
2013-04-11 03:02:00,54.0,48.0,-100.00,West,276,12.0,28.0,79,0.00,,,0.00,0.000000,,2013-04-11 07:02:00,
2013-04-11 03:03:00,52.0,48.0,-100.00,NW,309,11.0,22.0,85,0.00,,,0.00,0.000000,,2013-04-11 07:03:00,
2013-04-11 03:32:00,52.0,48.0,-100.00,NW,309,11.0,22.0,85,0.00,,,0.00,0.000000,,2013-04-11 07:32:00,
2013-04-11 03:43:00,52.0,48.0,-100.00,NW,309,11.0,22.0,85,0.00,,,0.00,0.000000,,2013-04-11 07:43:00,
2013-04-11 03:52:00,52.0,48.0,-100.00,NW,309,11.0,22.0,85,0.00,,,0.00,0.000000,,2013-04-11 07:52:00,
2013-04-11 04:22:00,51.0,47.0,-100.00,NNW,329,11.0,24.0,86,0.00,,,0.00,0.000000,,2013-04-11 08:22:00,
2013-04-11 04:33:00,51.0,47.0,-100.00,NNW,329,11.0,24.0,86,0.00,,,0.00,0.000000,,2013-04-11 08:33:00,
2013-04-11 04:43:00,51.0,47.0,-100.00,NNW,329,11.0,24.0,86,0.00,,,0.00,0.000000,,2013-04-11 08:43:00,
2013-04-11 04:52:00,51.0,47.0,-100.00,NNW,329,11.0,24.0,86,0.00,,,0.00,0.000000,,2013-04-11 08:52:00,
2013-04-11 05:02:00,51.0,47.0,-100.00,NNW,329,11.0,24.0,86,0.00,,,0.00,0.000000,,2013-04-11 09:02:00,
2013-04-11 05:33:00,51.0,47.0,-100.00,NW,320,11.0,24.0,87,0.00,,,0.00,0.000000,,2013-04-11 09:33:00,
2013-04-11 05:43:00,51.0,47.0,-100.00,NW,320,11.0,24.0,87,0.00,,,0.00,0.000000,,2013-04-11 09:43:00,
2013-04-11 05:53:00,51.0,47.0,-100.00,NW,320,11.0,24.0,87,0.00,,,0.00,0.000000,,2013-04-11 09:53:00,
2013-04-11 06:02:00,51.0,47.0,-100.00,NW,320,11.0,24.0,87,0.00,,,0.00,0.000000,,2013-04-11 10:02:00,
2013-04-11 06:03:00,50.0,47.0,-100.00,NNW,335,6.0,22.0,88,0.00,,,0.00,0.000000,,2013-04-11 10:03:00,
2013-04-11 06:32:00,50.0,47.0,-100.00,NNW,335,6.0,22.0,88,0.00,,,0.00,0.000000,,2013-04-11 10:32:00,
2013-04-11 06:42:00,50.0,47.0,-100.00,NNW,335,6.0,22.0,88,0.00,,,0.00,0.000000,,2013-04-11 10:42:00,
2013-04-11 06:52:00,50.0,47.0,-100.00,NNW,335,6.0,22.0,88,0.00,,,0.00,0.000000,,2013-04-11 10:52:00,
2013-04-11 07:32:00,50.0,47.0,-100.00,NNW,342,10.0,19.0,88,0.00,,,-99.99,0.000000,,2013-04-11 11:32:00,
2013-04-11 07:43:00,50.0,47.0,-100.00,NNW,342,10.0,19.0,88,0.00,,,-99.99,0.000000,,2013-04-11 11:43:00,
2013-04-11 07:53:00,50.0,47.0,-100.00,NNW,342,10.0,19.0,88,0.00,,,-99.99,0.000000,,2013-04-11 11:53:00,
2013-04-11 08:02:00,50.0,47.0,-100.00,NNW,342,10.0,19.0,88,0.00,,,-99.99,0.000000,,2013-04-11 12:02:00,
2013-04-11 08:32:00,51.0,47.0,-100.00,NNW,332,7.0,19.0,87,0.00,,,-99.99,65.000000,,2013-04-11 12:32:00,
2013-04-11 08:43:00,51.0,47.0,-100.00,NNW,332,7.0,19.0,87,0.00,,,-99.99,65.000000,,2013-04-11 12:43:00,
2013-04-11 08:52:00,51.0,47.0,-100.00,NNW,332,7.0,19.0,87,0.00,,,-99.99,65.000000,,2013-04-11 12:52:00,
2013-04-11 09:02:00,51.0,47.0,-100.00,NNW,332,7.0,19.0,87,0.00,,,-99.99,65.000000,,2013-04-11 13:02:00,
2013-04-11 09:03:00,51.0,48.0,-100.00,NNW,328,8.0,14.0,89,0.00,,,0.00,94.000000,,2013-04-11 13:03:00,
2013-04-11 09:32:00,51.0,48.0,-100.00,NNW,328,8.0,14.0,89,0.00,,,0.00,94.000000,,2013-04-11 13:32:00,
2013-04-11 09:43:00,51.0,48.0,-100.00,NNW,328,8.0,14.0,89,0.00,,,0.00,94.000000,,2013-04-11 13:43:00,
2013-04-11 09:54:00,51.0,48.0,-100.00,NNW,328,8.0,14.0,89,0.00,,,0.00,94.000000,,2013-04-11 13:54:00,
2013-04-11 10:33:00,58.0,50.0,-100.00,NW,323,6.0,14.0,74,0.00,,,0.00,506.000000,,2013-04-11 14:33:00,
2013-04-11 10:43:00,58.0,50.0,-100.00,NW,323,6.0,14.0,74,0.00,,,0.00,506.000000,,2013-04-11 14:43:00,
2013-04-11 10:53:00,58.0,50.0,-100.00,NW,323,6.0,14.0,74,0.00,,,0.00,506.000000,,2013-04-11 14:53:00,
2013-04-11 11:02:00,58.0,50.0,-100.00,NW,323,6.0,14.0,74,0.00,,,0.00,506.000000,,2013-04-11 15:02:00,
2013-04-11 13:03:00,66.0,46.0,-100.00,NW,307,8.0,15.0,48,-99.99,,,0.00,739.000000,,2013-04-11 17:03:00,
2013-04-11 13:33:00,66.0,46.0,-100.00,NW,307,8.0,15.0,48,-99.99,,,0.00,739.000000,,2013-04-11 17:33:00,
2013-04-11 13:43:00,66.0,46.0,-100.00,NW,307,8.0,15.0,48,-99.99,,,0.00,739.000000,,2013-04-11 17:43:00,
2013-04-11 13:53:00,66.0,46.0,-100.00,NW,307,8.0,15.0,48,-99.99,,,0.00,739.000000,,2013-04-11 17:53:00,
2013-04-11 14:03:00,69.0,42.0,-100.00,NW,318,5.0,16.0,38,0.00,,,0.00,879.000000,,2013-04-11 18:03:00,
2013-04-11 14:33:00,69.0,42.0,-100.00,NW,318,5.0,16.0,38,0.00,,,0.00,879.000000,,2013-04-11 18:33:00,
2013-04-11 14:43:00,69.0,42.0,-100.00,NW,318,5.0,16.0,38,0.00,,,0.00,879.000000,,2013-04-11 18:43:00,
2013-04-11 14:53:00,69.0,42.0,-100.00,NW,318,5.0,16.0,38,0.00,,,0.00,879.000000,,2013-04-11 18:53:00,
2013-04-11 15:03:00,66.0,41.0,-100.00,NW,308,7.0,14.0,40,0.00,,,0.00,720.000000,,2013-04-11 19:03:00,
2013-04-11 15:23:00,66.0,41.0,-100.00,NW,308,7.0,14.0,40,0.00,,,0.00,720.000000,,2013-04-11 19:23:00,
2013-04-11 15:33:00,66.0,41.0,-100.00,NW,308,7.0,14.0,40,0.00,,,0.00,720.000000,,2013-04-11 19:33:00,
2013-04-11 15:43:00,66.0,41.0,-100.00,NW,308,7.0,14.0,40,0.00,,,0.00,720.000000,,2013-04-11 19:43:00,
2013-04-11 15:53:00,66.0,41.0,-100.00,NW,308,7.0,14.0,40,0.00,,,0.00,720.000000,,2013-04-11 19:53:00,
2013-04-11 16:03:00,64.0,47.0,-100.00,NW,304,8.0,20.0,53,0.00,,,0.00,388.000000,,2013-04-11 20:03:00,
2013-04-11 16:34:00,64.0,47.0,-100.00,NW,304,8.0,20.0,53,0.00,,,0.00,388.000000,,2013-04-11 20:34:00,
2013-04-11 16:43:00,64.0,47.0,-100.00,NW,304,8.0,20.0,53,0.00,,,0.00,388.000000,,2013-04-11 20:43:00,
2013-04-11 16:53:00,64.0,47.0,-100.00,NW,304,8.0,20.0,53,0.00,,,0.00,388.000000,,2013-04-11 20:53:00,
2013-04-11 17:03:00,61.0,46.0,-100.00,WNW,295,12.0,23.0,58,0.00,,,0.00,275.000000,,2013-04-11 21:03:00,
2013-04-11 17:23:00,61.0,46.0,-100.00,WNW,295,12.0,23.0,58,0.00,,,0.00,275.000000,,2013-04-11 21:23:00,
2013-04-11 17:33:00,61.0,46.0,-100.00,WNW,295,12.0,23.0,58,0.00,,,0.00,275.000000,,2013-04-11 21:33:00,
2013-04-11 17:43:00,61.0,46.0,-100.00,WNW,295,12.0,23.0,58,0.00,,,0.00,275.000000,,2013-04-11 21:43:00,
2013-04-11 17:54:00,61.0,46.0,-100.00,WNW,295,12.0,23.0,58,0.00,,,0.00,275.000000,,2013-04-11 21:54:00,
2013-04-11 18:03:00,57.0,47.0,-100.00,West,270,11.0,26.0,70,0.00,,,0.00,54.000000,,2013-04-11 22:03:00,
2013-04-11 18:33:00,57.0,47.0,-100.00,West,270,11.0,26.0,70,0.00,,,0.00,54.000000,,2013-04-11 22:33:00,
2013-04-11 18:44:00,57.0,47.0,-100.00,West,270,11.0,26.0,70,0.00,,,0.00,54.000000,,2013-04-11 22:44:00,
2013-04-11 18:53:00,57.0,47.0,-100.00,West,270,11.0,26.0,70,0.00,,,0.00,54.000000,,2013-04-11 22:53:00,
2013-04-11 19:33:00,56.0,49.0,-100.00,West,267,17.0,33.0,78,0.00,,,0.00,68.000000,,2013-04-11 23:33:00,
2013-04-11 19:43:00,56.0,49.0,-100.00,West,267,17.0,33.0,78,0.00,,,0.00,68.000000,,2013-04-11 23:43:00,
2013-04-11 19:53:00,56.0,49.0,-100.00,West,267,17.0,33.0,78,0.00,,,0.00,68.000000,,2013-04-11 23:53:00,
2013-04-11 20:02:00,56.0,49.0,-100.00,West,267,17.0,33.0,78,0.00,,,0.00,68.000000,,2013-04-12 00:02:00,
2013-04-11 20:33:00,53.0,50.0,-100.00,West,259,17.0,30.0,91,0.08,,,0.08,9.000000,,2013-04-12 00:33:00,
2013-04-11 20:43:00,53.0,50.0,-100.00,West,259,17.0,30.0,91,0.08,,,0.08,9.000000,,2013-04-12 00:43:00,
2013-04-11 20:53:00,53.0,50.0,-100.00,West,259,17.0,30.0,91,0.08,,,0.08,9.000000,,2013-04-12 00:53:00,
2013-04-11 21:02:00,53.0,50.0,-100.00,West,259,17.0,30.0,91,0.08,,,0.08,9.000000,,2013-04-12 01:02:00,
2013-04-11 21:03:00,53.0,53.0,-100.00,West,269,15.0,28.0,99,0.03,,,0.11,0.000000,,2013-04-12 01:03:00,
2013-04-11 21:23:00,53.0,53.0,-100.00,West,269,15.0,28.0,99,0.03,,,0.11,0.000000,,2013-04-12 01:23:00,
2013-04-11 21:33:00,53.0,53.0,-100.00,West,269,15.0,28.0,99,0.03,,,0.11,0.000000,,2013-04-12 01:33:00,
2013-04-11 21:42:00,53.0,53.0,-100.00,West,269,15.0,28.0,99,0.03,,,0.11,0.000000,,2013-04-12 01:42:00,
2013-04-11 21:52:00,53.0,53.0,-100.00,West,269,15.0,28.0,99,0.03,,,0.11,0.000000,,2013-04-12 01:52:00,
2013-04-11 22:22:00,53.0,53.0,-100.00,West,263,18.0,27.0,99,0.01,,,0.12,0.000000,,2013-04-12 02:22:00,
2013-04-11 22:32:00,53.0,53.0,-100.00,West,263,18.0,27.0,99,0.01,,,0.12,0.000000,,2013-04-12 02:32:00,
2013-04-11 22:42:00,53.0,53.0,-100.00,West,263,18.0,27.0,99,0.01,,,0.12,0.000000,,2013-04-12 02:42:00,
2013-04-11 22:52:00,53.0,53.0,-100.00,West,263,18.0,27.0,99,0.01,,,0.12,0.000000,,2013-04-12 02:52:00,
2013-04-11 23:02:00,53.0,53.0,-100.00,West,263,18.0,27.0,99,0.01,,,0.12,0.000000,,2013-04-12 03:02:00,
2013-04-11 23:03:00,53.0,53.0,-100.00,WNW,296,16.0,33.0,99,0.08,,,0.20,0.000000,,2013-04-12 03:03:00,
2013-04-11 23:33:00,53.0,53.0,-100.00,WNW,296,16.0,33.0,99,0.08,,,0.20,0.000000,,2013-04-12 03:33:00,
2013-04-11 23:43:00,53.0,53.0,-100.00,WNW,296,16.0,33.0,99,0.08,,,0.20,0.000000,,2013-04-12 03:43:00,
2013-04-11 23:53:00,53.0,53.0,-100.00,WNW,296,16.0,33.0,99,0.08,,,0.20,0.000000,,2013-04-12 03:53:00,